| time (UTC) | temp C | wind direction | speed KPH | gust KPH | rain 1hr cm | rain 24hr cm | rain mn cm | humidity % | barometer mb |
| 20260902161406 | 29 | 209 | 4.8 | 9.7 | 0.00 | 0.00 | 0.00 | 64 | 1016.9 |
| 20260902160906 | 29 | 259 | 4.8 | 8.0 | 0.00 | 0.00 | 0.00 | 64 | 1016.9 |
| 20260902160408 | 29 | 240 | 1.6 | 4.8 | 0.00 | 0.00 | 0.00 | 62 | 1016.6 |
| 20260902153906 | 29 | 212 | 1.6 | 3.2 | 0.00 | 0.00 | 0.00 | 61 | 1017.0 |
| 20260902151906 | 28 | 214 | 3.2 | 8.0 | 0.00 | 0.00 | 0.00 | 65 | 1017.1 |
| 20260902151406 | 28 | 212 | 4.8 | 8.0 | 0.00 | 0.00 | 0.00 | 66 | 1017.1 |
| 20260902150406 | 27 | 212 | 4.8 | 11.3 | 0.00 | 0.00 | 0.00 | 67 | 1017.1 |
| 20260902144907 | 28 | 212 | 6.4 | 9.7 | 0.00 | 0.00 | 0.00 | 65 | 1017.1 |
| 20260902144406 | 28 | 211 | 4.8 | 9.7 | 0.00 | 0.00 | 0.00 | 62 | 1017.0 |
| 20260902143407 | 28 | 211 | 0.0 | 8.0 | 0.00 | 0.00 | 0.00 | 59 | 1017.0 |
| 20260902140906 | 30 | 213 | 4.8 | 12.9 | 0.00 | 0.00 | 0.00 | 56 | 1017.3 |
| 20260902134907 | 30 | 266 | 8.0 | 14.5 | 0.00 | 0.00 | 0.00 | 56 | 1017.4 |
| 20260902133406 | 29 | 253 | 6.4 | 14.5 | 0.00 | 0.00 | 0.00 | 58 | 1017.6 |
| 20260902130906 | 29 | 248 | 8.0 | 11.3 | 0.00 | 0.00 | 0.00 | 57 | 1017.7 |
| 20260902124906 | 30 | 245 | 4.8 | 12.9 | 0.00 | 0.00 | 0.00 | 59 | 1017.8 |
| 20260902123906 | 30 | 248 | 8.0 | 12.9 | 0.00 | 0.00 | 0.00 | 58 | 1017.8 |
| 20260902123407 | 30 | 253 | 8.0 | 14.5 | 0.00 | 0.00 | 0.00 | 58 | 1017.9 |
| 20260902120406 | 30 | 197 | 4.8 | 11.3 | 0.00 | 0.00 | 0.00 | 55 | 1018.2 |
| 20260902114906 | 30 | 195 | 4.8 | 11.3 | 0.00 | 0.00 | 0.00 | 54 | 1018.4 |
| 20260902114407 | 30 | 245 | 3.2 | 4.8 | 0.00 | 0.00 | 0.00 | 53 | 1018.5 |
| 20260902113406 | 30 | 239 | 3.2 | 11.3 | 0.00 | 0.00 | 0.00 | 53 | 1018.5 |
| 20260902104906 | 28 | 222 | 1.6 | 4.8 | 0.00 | 0.00 | 0.00 | 57 | 1019.0 |
| 20260902103908 | 28 | 222 | 3.2 | 4.8 | 0.00 | 0.00 | 0.00 | 59 | 1019.1 |
| 20260902101906 | 27 | 223 | 4.8 | 9.7 | 0.00 | 0.00 | 0.00 | 63 | 1019.3 |
| 20260902101406 | 26 | 256 | 4.8 | 9.7 | 0.00 | 0.00 | 0.00 | 64 | 1019.5 |
| 20260902100906 | 26 | 255 | 6.4 | 9.7 | 0.00 | 0.00 | 0.00 | 64 | 1019.4 |
| 20260902100406 | 26 | 226 | 4.8 | 9.7 | 0.00 | 0.00 | 0.00 | 65 | 1019.4 |
| 20260902094906 | 26 | 211 | 3.2 | 8.0 | 0.00 | 0.00 | 0.00 | 65 | 1019.4 |
| 20260902094409 | 26 | 248 | 3.2 | 8.0 | 0.00 | 0.00 | 0.00 | 64 | 1019.5 |
| 20260902093906 | 26 | 246 | 6.4 | 9.7 | 0.00 | 0.00 | 0.00 | 65 | 1019.5 |
| 20260902093407 | 26 | 255 | 4.8 | 9.7 | 0.00 | 0.00 | 0.00 | 64 | 1019.6 |
| 20260902090906 | 25 | 202 | 4.8 | 8.0 | 0.00 | 0.00 | 0.00 | 67 | 1019.5 |
| 20260902090406 | 25 | 244 | 3.2 | 11.3 | 0.00 | 0.00 | 0.00 | 69 | 1019.5 |
| 20260902084406 | 24 | 248 | 1.6 | 4.8 | 0.00 | 0.00 | 0.00 | 71 | 1019.5 |
| 20260902083407 | 23 | 271 | 4.8 | 8.0 | 0.00 | 0.00 | 0.00 | 72 | 1019.5 |
| 20260902080906 | 23 | 249 | 4.8 | 8.0 | 0.00 | 0.00 | 0.00 | 74 | 1019.4 |
| 20260902073406 | 22 | 34 | 0.0 | 0.0 | 0.00 | 0.00 | 0.00 | 78 | 1019.2 |
| 20260902071906 | 21 | 34 | 0.0 | 0.0 | 0.00 | 0.00 | 0.00 | 79 | 1019.1 |
| 20260902070906 | 21 | 34 | 0.0 | 0.0 | 0.00 | 0.00 | 0.00 | 78 | 1019.1 |
| 20260902064906 | 21 | 34 | 0.0 | 0.0 | 0.00 | 0.00 | 0.00 | 80 | 1019.1 |
| 20260902064406 | 20 | 34 | 0.0 | 0.0 | 0.00 | 0.00 | 0.00 | 81 | 1019.1 |
| 20260902063906 | 20 | 34 | 0.0 | 0.0 | 0.00 | 0.00 | 0.00 | 81 | 1019.1 |
| 20260902063406 | 20 | 34 | 0.0 | 0.0 | 0.00 | 0.00 | 0.00 | 82 | 1019.2 |
| 20260902061906 | 18 | 34 | 0.0 | 0.0 | 0.00 | 0.00 | 0.00 | 83 | 1019.1 |
| 20260902060906 | 18 | 34 | 0.0 | 0.0 | 0.00 | 0.00 | 0.00 | 82 | 1019.1 |
| 20260902060406 | 18 | 34 | 0.0 | 0.0 | 0.00 | 0.00 | 0.00 | 81 | 1019.0 |
| 20260902053905 | 17 | 34 | 0.0 | 0.0 | 0.00 | 0.00 | 0.00 | 81 | 1018.9 |
| 20260902051906 | 18 | 34 | 0.0 | 0.0 | 0.00 | 0.00 | 0.00 | 82 | 1018.8 |
| 20260902051406 | 18 | 34 | 0.0 | 0.0 | 0.00 | 0.00 | 0.00 | 82 | 1018.8 |
| 20260902050906 | 18 | 34 | 0.0 | 1.6 | 0.00 | 0.00 | 0.00 | 82 | 1018.7 |
| 20260902050406 | 18 | 34 | 3.2 | 8.0 | 0.00 | 0.00 | 0.00 | 82 | 1018.7 |
| 20260902044406 | 18 | 34 | 0.0 | 0.0 | 0.00 | 0.00 | 0.00 | 83 | 1018.7 |
| 20260902043906 | 18 | 34 | 0.0 | 3.2 | 0.00 | 0.00 | 0.00 | 83 | 1018.7 |
| 20260902043406 | 18 | 34 | 1.6 | 8.0 | 0.00 | 0.00 | 0.00 | 83 | 1018.6 |
| 20260902041906 | 18 | 34 | 8.0 | 9.7 | 0.00 | 0.00 | 0.00 | 83 | 1018.5 |
| 20260902041406 | 18 | 20 | 3.2 | 4.8 | 0.00 | 0.00 | 0.00 | 83 | 1018.6 |
| 20260902040905 | 18 | 20 | 4.8 | 4.8 | 0.00 | 0.00 | 0.00 | 83 | 1018.6 |
| 20260902034405 | 18 | 20 | 3.2 | 8.0 | 0.00 | 0.00 | 0.00 | 82 | 1018.4 |
| 20260902031905 | 18 | 19 | 1.6 | 9.7 | 0.00 | 0.00 | 0.00 | 82 | 1018.5 |
| 20260902031405 | 18 | 19 | 0.0 | 4.8 | 0.00 | 0.00 | 0.00 | 82 | 1018.5 |
| 20260902030406 | 18 | 19 | 8.0 | 14.5 | 0.00 | 0.00 | 0.00 | 82 | 1018.5 |
| 20260902024405 | 18 | 32 | 3.2 | 4.8 | 0.00 | 0.00 | 0.00 | 82 | 1018.6 |
| 20260902023906 | 18 | 32 | 3.2 | 4.8 | 0.00 | 0.00 | 0.00 | 82 | 1018.6 |
| 20260902021905 | 18 | 32 | 6.4 | 11.3 | 0.00 | 0.00 | 0.00 | 82 | 1018.6 |
| 20260902013905 | 18 | 32 | 0.0 | 3.2 | 0.00 | 0.00 | 0.00 | 82 | 1018.5 |
| 20260902003905 | 19 | 47 | 3.2 | 4.8 | 0.00 | 0.00 | 0.00 | 81 | 1018.7 |
| 20260902003406 | 19 | 47 | 4.8 | 9.7 | 0.00 | 0.00 | 0.00 | 81 | 1018.7 |
| 20260902000407 | 19 | 49 | 3.2 | 8.0 | 0.00 | 0.00 | 0.00 | 81 | 1018.7 |
| 20260901231905 | 19 | 49 | 4.8 | 4.8 | 0.00 | 0.00 | 0.00 | 79 | 1018.9 |
| 20260901230905 | 20 | 49 | 3.2 | 4.8 | 0.00 | 0.00 | 0.00 | 77 | 1018.9 |
| 20260901230405 | 20 | 49 | 1.6 | 4.8 | 0.00 | 0.00 | 0.00 | 77 | 1019.0 |
| 20260901224405 | 20 | 49 | 0.0 | 4.8 | 0.00 | 0.00 | 0.00 | 71 | 1019.0 |
| 20260901223405 | 20 | 49 | 3.2 | 8.0 | 0.00 | 0.00 | 0.00 | 72 | 1018.9 |
| 20260901221906 | 20 | 47 | 1.6 | 4.8 | 0.00 | 0.00 | 0.00 | 69 | 1018.9 |
| 20260901221405 | 20 | 44 | 6.4 | 12.9 | 0.00 | 0.00 | 0.00 | 69 | 1018.8 |
| 20260901220906 | 20 | 39 | 3.2 | 9.7 | 0.00 | 0.00 | 0.00 | 69 | 1018.7 |
| 20260901214405 | 20 | 31 | 6.4 | 11.3 | 0.00 | 0.00 | 0.00 | 68 | 1018.7 |
| 20260901213905 | 20 | 27 | 4.8 | 9.7 | 0.00 | 0.00 | 0.00 | 68 | 1018.8 |
| 20260901213405 | 20 | 61 | 1.6 | 12.9 | 0.00 | 0.00 | 0.00 | 67 | 1018.7 |
| 20260901211405 | 20 | 30 | 9.7 | 14.5 | 0.00 | 0.00 | 0.00 | 67 | 1018.5 |
| 20260901210905 | 20 | 34 | 9.7 | 12.9 | 0.00 | 0.00 | 0.00 | 67 | 1018.5 |
| 20260901204905 | 20 | 37 | 4.8 | 8.0 | 0.00 | 0.00 | 0.00 | 66 | 1018.5 |
| 20260901200906 | 21 | 34 | 4.8 | 9.7 | 0.00 | 0.00 | 0.00 | 67 | 1018.6 |
| 20260901200407 | 21 | 34 | 3.2 | 12.9 | 0.00 | 0.00 | 0.00 | 68 | 1018.5 |
| 20260901194907 | 21 | 25 | 9.7 | 19.3 | 0.00 | 0.00 | 0.00 | 67 | 1018.4 |
| 20260901193907 | 21 | 29 | 14.5 | 19.3 | 0.00 | 0.00 | 0.00 | 67 | 1018.3 |
| 20260901191907 | 22 | 24 | 11.3 | 19.3 | 0.00 | 0.00 | 0.00 | 67 | 1018.2 |
| 20260901191407 | 22 | 42 | 9.7 | 19.3 | 0.00 | 0.00 | 0.00 | 67 | 1018.0 |
| 20260901190907 | 22 | 46 | 4.8 | 11.3 | 0.00 | 0.00 | 0.00 | 67 | 1017.9 |
| 20260901184907 | 22 | 40 | 9.7 | 16.1 | 0.00 | 0.00 | 0.00 | 67 | 1017.5 |
| 20260901184407 | 22 | 15 | 8.0 | 12.9 | 0.00 | 0.00 | 0.00 | 67 | 1017.3 |
| 20260901181907 | 23 | 19 | 9.7 | 19.3 | 0.00 | 0.00 | 0.00 | 69 | 1017.2 |
| 20260901181406 | 23 | 25 | 8.0 | 14.5 | 0.00 | 0.00 | 0.00 | 69 | 1017.3 |
| 20260901180907 | 23 | 34 | 8.0 | 14.5 | 0.00 | 0.00 | 0.00 | 69 | 1017.3 |
| 20260901180406 | 23 | 24 | 9.7 | 16.1 | 0.00 | 0.00 | 0.00 | 69 | 1017.4 |
| 20260901174906 | 24 | 26 | 9.7 | 14.5 | 0.00 | 0.00 | 0.00 | 67 | 1017.2 |
| 20260901173406 | 26 | 33 | 9.7 | 14.5 | 0.00 | 0.00 | 0.00 | 62 | 1017.2 |
| 20260901171907 | 28 | 212 | 3.2 | 4.8 | 0.00 | 0.00 | 0.00 | 51 | 1017.0 |
| 20260901171406 | 28 | 212 | 0.0 | 3.2 | 0.00 | 0.00 | 0.00 | 52 | 1016.9 |
| 20260901170412 | 28 | 212 | 3.2 | 12.9 | 0.00 | 0.00 | 0.00 | 54 | 1016.8 |
| 20260901164407 | 28 | 225 | 4.8 | 9.7 | 0.00 | 0.00 | 0.00 | 52 | 1016.9 |